Doncaster Sheffield, United Kingdom

10:06 AM BST on May 23, 2017 (GMT +0100)
Robin Hood Airport

Weather History for EGCN - November, 2012

Change the Weather History Date:

Thursday, November 22, 2012

  Actual Average Record
Temperature  
Mean Temperature 49 °F -  
Max Temperature 57 °F - - ()
Min Temperature 41 °F - - ()
Degree Days  
Heating Degree Days 16    
Moisture  
Dew Point 46 °F    
Average Humidity 83    
Maximum Humidity 93    
Minimum Humidity 72    
Precipitation  
Precipitation 0.00 in - - ()
Sea Level Pressure  
Sea Level Pressure 29.63 in    
Wind  
Wind Speed 15 mph ()    
Max Wind Speed 30 mph    
Max Gust Speed 43 mph    
Visibility 6.2 miles    
Events Rain    
T = Trace of Precipitation, MM = Missing Value Source: Averaged Metar Reports

Daily Weather History Graph

Daily Weather History Graph

Search for Another Location

Airport or City:

Trip Planner

Search our weather history database for the weather conditions in past years. The results will help you decide how hot, cold, wet, or windy it might be!

Date:

Astronomy

Nov. 22, 2012 Rise Set
Actual Time 7:42 AM GMT 3:57 PM GMT
Civil Twilight 7:02 AM GMT 4:37 PM GMT
Nautical Twilight 6:18 AM GMT 5:21 PM GMT
Astronomical Twilight 5:37 AM GMT 6:02 PM GMT
Moon 1:17 PM GMT (11/22) 1:01 AM GMT (11/22)
Length of Visible Light 9h 34m
Length of Day
8h 14m
Waxing Gibbous, 69% of the Moon is Illuminated
Nov 22
Waxing Gibbous
Nov 28
Full
Dec 6
Last Quarter
Dec 13
New
Dec 20
First Quarter

Hourly Weather History & Observations

Time (GMT) Temp. Windchill Dew Point Humidity Pressure Visibility Wind Dir Wind Speed Gust Speed Precip Events Conditions
12:20 AM 41.0 °F 35.2 °F 39.2 °F 93% 29.86 in - South 9.2 mph - N/A   Clear
5:20 AM 46.4 °F 41.5 °F 44.6 °F 93% 29.80 in 6.2 mi SSE 10.4 mph - N/A   Mostly Cloudy
5:50 AM 46.4 °F 41.5 °F 44.6 °F 93% 29.77 in 6.2 mi SSE 10.4 mph - N/A   Mostly Cloudy
6:20 AM 48.2 °F - 44.6 °F 87% 29.77 in 6.2 mi SSE 11.5 mph - N/A   Mostly Cloudy
6:50 AM 48.2 °F - 46.4 °F 93% 29.77 in 6.2 mi South 10.4 mph - N/A   Mostly Cloudy
7:20 AM 50.0 °F - 46.4 °F 87% 29.77 in 6.2 mi South 11.5 mph - N/A   Scattered Clouds
7:50 AM 50.0 °F - 46.4 °F 87% 29.77 in 6.2 mi South 16.1 mph - N/A   Scattered Clouds
8:20 AM 51.8 °F - 48.2 °F 88% 29.77 in 6.2 mi South 13.8 mph - N/A   Mostly Cloudy
8:50 AM 50.0 °F - 46.4 °F 87% 29.74 in 6.2 mi South 18.4 mph - N/A   Scattered Clouds
9:20 AM 51.8 °F - 48.2 °F 88% 29.74 in 6.2 mi South 17.3 mph - N/A   Scattered Clouds
9:50 AM 51.8 °F - 48.2 °F 88% 29.74 in 6.2 mi South 19.6 mph - N/A   Overcast
10:20 AM 53.6 °F - 48.2 °F 82% 29.71 in 6.2 mi South 19.6 mph - N/A   Mostly Cloudy
10:50 AM 53.6 °F - 48.2 °F 82% 29.71 in 6.2 mi South 19.6 mph - N/A   Mostly Cloudy
11:20 AM 55.4 °F - 48.2 °F 77% 29.68 in 6.2 mi South 21.9 mph - N/A   Scattered Clouds
11:50 AM 55.4 °F - 48.2 °F 77% 29.65 in 6.2 mi South 19.6 mph - N/A   Scattered Clouds
12:20 PM 55.4 °F - 48.2 °F 77% 29.65 in 6.2 mi South 20.7 mph - N/A   Scattered Clouds
12:50 PM 55.4 °F - 48.2 °F 77% 29.62 in 6.2 mi South 19.6 mph 32.2 mph N/A   Mostly Cloudy
1:20 PM 57.2 °F - 50.0 °F 77% 29.59 in 6.2 mi South 21.9 mph 33.4 mph N/A   Mostly Cloudy
1:50 PM 57.2 °F - 48.2 °F 72% 29.59 in 6.2 mi South 23.0 mph 36.8 mph N/A Rain Light Rain
2:20 PM 55.4 °F - 48.2 °F 77% 29.56 in 6.2 mi South 25.3 mph 39.1 mph N/A   Mostly Cloudy
2:50 PM 57.2 °F - 48.2 °F 72% 29.56 in 6.2 mi South 25.3 mph - N/A   Mostly Cloudy
3:20 PM 55.4 °F - 46.4 °F 72% 29.53 in 6.2 mi South 24.2 mph - N/A   Scattered Clouds
3:50 PM 55.4 °F - 46.4 °F 72% 29.53 in 6.2 mi South 27.6 mph 39.1 mph N/A   Scattered Clouds
4:20 PM 55.4 °F - 46.4 °F 72% 29.50 in 6.2 mi South 27.6 mph 39.1 mph N/A   Scattered Clouds
4:50 PM 55.4 °F - 46.4 °F 72% 29.50 in 6.2 mi South 29.9 mph 42.6 mph N/A   Mostly Cloudy
5:20 PM 55.4 °F - 46.4 °F 72% 29.47 in 6.2 mi South 28.8 mph 42.6 mph N/A   Mostly Cloudy
5:50 PM 55.4 °F - 46.4 °F 72% 29.47 in 6.2 mi South 26.5 mph 41.4 mph N/A   Mostly Cloudy
6:20 PM 53.6 °F - 48.2 °F 82% 29.50 in 6.2 mi South 26.5 mph 40.3 mph N/A Rain Rain
6:50 PM 50.0 °F - 44.6 °F 82% 29.53 in 6.2 mi SW 19.6 mph - N/A Rain Light Rain
7:20 PM 50.0 °F - 46.4 °F 87% 29.53 in 6.2 mi SW 12.7 mph - N/A Rain Light Rain
7:50 PM 48.2 °F - 46.4 °F 93% 29.53 in 6.2 mi SSW 10.4 mph - N/A Rain Light Rain
8:20 PM 48.2 °F - 44.6 °F 87% 29.56 in 6.2 mi SSW 12.7 mph - N/A Rain Light Rain
8:50 PM 46.4 °F 40.4 °F 44.6 °F 93% 29.56 in 6.2 mi SW 13.8 mph - N/A Rain Light Rain
9:20 PM 46.4 °F 40.4 °F 42.8 °F 87% 29.56 in 6.2 mi SW 13.8 mph - N/A Rain Light Rain
9:50 PM 46.4 °F 41.1 °F 44.6 °F 93% 29.59 in 6.2 mi SSW 11.5 mph - N/A Rain Light Rain
10:20 PM 46.4 °F 41.5 °F 44.6 °F 93% 29.59 in 6.2 mi South 10.4 mph - N/A   Mostly Cloudy
10:50 PM 46.4 °F 40.1 °F 42.8 °F 87% 29.59 in 6.2 mi SSW 15.0 mph - N/A Rain Light Rain
11:20 PM 46.4 °F 40.4 °F 42.8 °F 87% 29.59 in 6.2 mi South 13.8 mph - N/A   Partly Cloudy
11:50 PM 46.4 °F 40.1 °F 42.8 °F 87% 29.59 in 6.2 mi South 15.0 mph - N/A   Partly Cloudy